Location: Unspecified
(0.0000°N, 0.0000°E)
Time: 00:17:05
(UTC+00:00)

Traac - Pass Details

Date: 16 December 2025
Orbit: 951 x 1102 km, 32.4° (Epoch: 19 January)

Event Time Altitude Azimuth Distance (km) Brightness Sun altitude
Exits shadow 03:12:37 13° 39° (NE) 2,690 10.3 -36.8°
Drops below altitude 10° 03:14:34 10° 55° (NE) 2,895 10.7 -36.4°
Sets 03:19:12 0° 81° (E) 3,880 11.8 -35.4°
